Date,TemperatureHighF,TemperatureAvgF,TemperatureLowF,DewpointHighF,DewpointAvgF,DewpointLowF,HumidityHigh,HumidityAvg,HumidityLow,PressureMaxIn,PressureMinIn,WindSpeedMaxMPH,WindSpeedAvgMPH,GustSpeedMaxMPH,PrecipitationSumIn
2013-1-1,32,29,17,32,25,9,99,83,59,30.18,30.05,3,1,6,0.00
2013-1-2,25,17,9,14,9,4,84,70,49,30.27,30.15,3,0,6,0.00
2013-1-3,32,20,7,21,11,0,82,70,51,30.31,30.21,6,1,11,0.00
2013-1-4,31,27,23,22,18,14,76,66,58,30.35,30.27,8,3,15,0.00
2013-1-5,39,28,17,28,20,10,86,73,61,30.40,30.18,4,0,8,0.00
2013-1-6,38,32,26,31,26,20,86,78,72,30.34,30.05,6,1,12,0.09
2013-1-7,34,29,25,26,22,19,85,76,65,30.51,30.30,4,0,7,0.00
2013-1-8,43,31,19,32,24,15,85,76,63,30.38,30.27,4,0,6,0.00
2013-1-9,47,39,30,39,32,24,91,77,65,30.56,30.25,5,1,10,0.06
2013-1-10,42,34,25,31,27,21,89,76,61,30.59,30.21,8,1,13,0.01
2013-1-11,60,50,41,53,45,31,96,83,66,30.21,29.96,8,1,13,0.38
2013-1-12,63,57,51,59,54,47,98,90,75,30.11,29.92,4,0,8,0.00
2013-1-13,63,57,38,59,54,36,95,88,76,30.12,29.84,8,1,14,0.74
2013-1-14,38,30,25,36,22,17,92,73,62,30.46,30.12,6,1,10,0.01
2013-1-15,32,28,23,22,19,16,78,69,63,30.42,30.12,8,2,12,0.00
2013-1-16,37,32,31,27,24,21,82,70,57,30.13,29.98,4,1,8,0.00
2013-1-17,38,33,25,27,23,12,79,66,54,30.36,30.10,5,0,9,0.00
2013-1-18,34,26,17,21,13,5,70,57,45,30.54,30.25,5,0,9,0.00
2013-1-19,50,41,32,27,23,19,63,48,30,30.25,29.91,6,0,14,0.00
2013-1-20,44,31,24,32,13,4,65,47,34,30.24,29.90,4,0,15,0.00
2013-1-21,24,19,9,12,5,-11,68,53,36,30.21,30.06,6,0,14,0.00
2013-1-22,14,10,6,-6,-10,-13,45,39,29,30.36,30.20,2,0,8,0.00
2013-1-23,21,15,9,9,-4,-10,69,44,27,30.34,30.11,3,0,8,0.00
2013-1-24,19,16,12,9,3,0,70,57,43,30.59,30.10,3,0,8,0.00
2013-1-25,25,19,15,16,7,-2,76,60,44,30.50,30.06,2,0,5,0.00
2013-1-26,31,24,15,19,14,5,76,64,50,30.48,30.14,1,0,3,0.00
2013-1-27,35,24,10,27,13,1,81,62,50,30.52,30.27,0,0,3,0.00
2013-1-28,50,42,32,48,40,27,96,91,81,30.27,30.06,5,0,8,0.00
2013-1-29,65,56,48,54,50,47,97,84,66,30.11,29.73,3,0,8,0.00
2013-1-30,63,54,34,55,48,26,91,81,71,29.73,29.31,7,0,16,0.00
2013-1-31,34,26,18,26,15,6,78,65,47,29.97,29.51,5,0,17,0.00
2013-2-1,18,12,7,10,-2,-6,71,54,46,30.39,29.97,2,0,5,0.00
2013-2-2,27,20,9,20,11,-3,80,69,56,30.36,30.02,1,0,4,0.00
2013-2-3,26,21,17,18,12,5,77,67,53,30.13,29.94,0,0,4,0.00
2013-2-4,31,23,13,26,15,6,86,71,53,30.13,29.88,0,0,0,0.00
2013-2-5,33,29,25,26,22,19,86,74,62,30.03,29.89,57,0,0,0.00
2013-2-6,34,30,23,26,19,13,79,65,50,30.34,30.03,0,0,0,0.00
2013-2-7,45,36,23,32,24,13,72,63,52,30.30,29.89,0,0,0,0.00
2013-2-8,43,34,26,38,26,13,90,72,58,30.34,29.83,2,0,4,0.00
2013-2-9,34,26,19,17,14,11,77,59,46,30.47,30.32,0,0,0,0.00
2013-2-10,44,37,27,24,20,13,58,49,44,30.32,30.12,0,0,0,0.00
2013-2-11,44,44,44,24,24,24,44,44,44,30.13,30.13,0,0,0,0.00
2013-2-12,44,44,44,24,24,24,44,44,44,30.13,30.13,0,0,0,0.00
2013-2-13,44,44,44,24,24,24,44,44,44,30.13,30.13,0,0,0,0.00
2013-2-14,44,44,44,24,24,24,44,44,44,30.13,30.13,0,0,0,0.00
2013-2-15,44,44,44,24,24,24,44,44,44,30.13,30.13,0,0,0,0.00
2013-2-16,44,44,44,24,24,24,44,44,44,30.13,30.13,0,0,0,0.00
2013-2-17,44,44,44,24,24,24,44,44,44,30.13,30.13,0,0,0,0.00